GW5789 Weather Reports


time (UTC)temp
C
wind
direction
speed
KPH
gust
KPH
rain 1hr
cm
rain 24hr
cm
rain mn
cm
humidity
%
barometer
mb
20260510083009 20 80 1.6 4.8 0.00 0.05 0.00 89 1012.1
20260510081516 20 82 1.6 4.8 0.00 0.05 0.00 88 1012.2
20260510080004 20 132 1.6 3.2 0.00 0.05 0.00 88 1012.1
20260510074506 20 97 1.6 3.2 0.00 0.05 0.00 87 1012.2
20260510073011 20 51 0.0 3.2 0.00 0.05 0.00 87 1012.4
20260510071516 20 51 0.0 3.2 0.00 0.05 0.00 87 1012.3
20260510070021 20 87 0.0 3.2 0.00 0.05 0.00 86 1012.2
20260510064520 21 65 0.0 3.2 0.00 0.05 0.00 86 1012.0
20260510063009 21 113 0.0 3.2 0.00 0.05 0.00 86 1012.0
20260510061512 21 53 0.0 3.2 0.00 0.05 0.00 84 1012.0
20260510060018 21 84 0.0 3.2 0.00 0.05 0.00 84 1011.9
20260510054526 22 65 0.0 3.2 0.00 0.05 0.00 82 1011.8
20260510053020 22 61 0.0 4.8 0.00 0.05 0.00 82 1012.0
20260510051512 22 64 0.0 4.8 0.00 0.05 0.00 84 1011.9
20260510050017 21 80 0.0 3.2 0.00 0.05 0.00 87 1011.8
20260510044521 21 80 0.0 0.0 0.00 0.05 0.05 87 1011.8
20260510043027 22 80 0.0 1.6 0.00 0.05 0.05 85 1011.8
20260510041508 22 80 0.0 0.0 0.00 0.05 0.05 84 1011.7
20260510040014 22 80 0.0 3.2 0.00 0.05 0.05 84 1011.7
20260510034517 23 30 0.0 3.2 0.00 0.05 0.05 84 1011.7
20260510033022 23 30 0.0 3.2 0.00 0.05 0.05 83 1011.6
20260510031530 23 30 0.0 0.0 0.00 0.05 0.05 82 1011.4
20260510030011 24 30 0.0 3.2 0.00 0.05 0.05 80 1011.0
20260510024516 24 55 1.6 4.8 0.00 0.05 0.05 81 1011.0
20260510023020 25 84 0.0 3.2 0.00 0.05 0.05 80 1010.6
20260510021529 25 37 1.6 6.4 0.00 0.05 0.05 79 1010.4
20260510020030 25 348 1.6 3.2 0.00 0.05 0.05 78 1010.4
20260510014513 25 30 0.0 3.2 0.00 0.05 0.05 76 1010.2
20260510013019 26 30 0.0 3.2 0.00 0.05 0.05 74 1010.0
20260510011522 26 30 0.0 3.2 0.00 0.05 0.05 71 1009.9
20260510010025 27 35 0.0 3.2 0.00 0.05 0.05 68 1009.8
20260510004512 27 50 1.6 4.8 0.00 0.05 0.05 65 1009.7
20260510003018 28 71 1.6 4.8 0.00 0.05 0.05 61 1009.7
20260510001522 28 28 3.2 11.3 0.00 0.05 0.05 57 1009.4
20260510000005 28 55 4.8 9.7 0.00 0.05 0.05 54 1009.3
20260509234507 29 59 3.2 9.7 0.00 0.05 0.05 48 1009.1
20260509233019 29 50 4.8 12.9 0.00 0.05 0.05 47 1009.0
20260509231520 29 9 3.2 16.1 0.00 0.05 0.05 51 1009.0
20260509230026 30 30 3.2 12.9 0.00 0.05 0.05 53 1009.1
20260509224505 30 37 1.6 8.0 0.00 0.05 0.05 54 1008.9
20260509223014 30 325 3.2 8.0 0.00 0.05 0.05 56 1008.9
20260509221517 30 94 1.6 6.4 0.00 0.05 0.05 55 1009.0
20260509220035 30 96 1.6 4.8 0.00 0.05 0.05 59 1008.9
20260509214530 29 344 1.6 8.0 0.00 0.05 0.05 58 1008.9
20260509213014 27 111 3.2 11.3 0.00 0.05 0.05 60 1009.1
20260509211519 26 66 4.8 20.9 0.00 0.05 0.05 60 1009.5
20260509210020 26 30 8.0 19.3 0.00 0.05 0.05 59 1010.1
20260509204526 27 50 8.0 24.1 0.00 0.05 0.05 55 1009.9
20260509203036 31 13 1.6 12.9 0.00 0.05 0.05 49 1009.9
20260509201514 31 352 0.0 6.4 0.00 0.05 0.05 53 1009.7
20260509200020 32 69 3.2 19.3 0.00 0.05 0.05 52 1009.9
20260509194534 31 71 3.2 11.3 0.00 0.05 0.05 54 1010.0
20260509193032 31 183 4.8 14.5 0.00 0.05 0.05 56 1010.3
20260509191513 32 113 6.4 14.5 0.00 0.05 0.05 52 1010.5
20260509190018 31 86 3.2 12.9 0.00 0.05 0.05 56 1010.8
20260509184523 30 142 1.6 12.9 0.00 0.05 0.05 58 1011.0
20260509183030 30 65 4.8 11.3 0.00 0.05 0.05 59 1011.3
20260509181525 31 169 6.4 11.3 0.00 0.05 0.05 58 1011.4
20260509180017 29 133 3.2 6.4 0.00 0.05 0.05 63 1011.3
20260509174537 30 207 3.2 8.0 0.00 0.05 0.05 66 1011.8
20260509173024 28 68 1.6 12.9 0.00 0.05 0.05 69 1011.9
20260509171537 28 88 3.2 12.9 0.00 0.05 0.05 70 1011.9
20260509170032 27 86 3.2 6.4 0.00 0.05 0.05 73 1012.1
20260509164517 28 54 3.2 12.9 0.00 0.05 0.05 71 1012.1
20260509163034 27 238 3.2 9.7 0.00 0.05 0.05 75 1012.1
20260509161532 27 90 3.2 12.9 0.00 0.05 0.05 78 1012.0
20260509160026 26 44 3.2 11.3 0.00 0.05 0.05 81 1012.0
20260509154505 25 198 4.8 11.3 0.00 0.05 0.05 84 1012.2
20260509153004 25 140 4.8 14.5 0.00 0.05 0.05 87 1012.3
20260509151505 23 35 3.2 12.9 0.00 0.05 0.05 94 1012.3
20260509150014 22 78 1.6 11.3 0.00 0.05 0.05 95 1012.3
20260509144504 22 83 3.2 12.9 0.00 0.05 0.05 95 1011.8
20260509143007 22 101 1.6 9.7 0.00 0.05 0.05 95 1011.8
20260509141507 22 55 3.2 11.3 0.00 0.05 0.05 95 1011.5
20260509140006 22 103 1.6 3.2 0.00 0.05 0.05 95 1011.5
20260509134504 22 276 0.0 4.8 0.00 0.05 0.05 95 1011.9
20260509133008 21 259 0.0 4.8 0.00 0.05 0.05 95 1012.0
20260509131506 21 352 1.6 4.8 0.00 0.05 0.05 95 1012.2
20260509130008 21 325 1.6 4.8 0.00 0.05 0.05 95 1011.7
20260509124507 21 308 0.0 3.2 0.00 0.05 0.05 95 1011.4
20260509123006 21 302 0.0 3.2 0.00 0.05 0.05 95 1011.6
20260509121512 21 294 0.0 3.2 0.00 0.05 0.05 95 1011.6
20260509120010 21 294 0.0 4.8 0.00 0.05 0.05 95 1011.8
20260509114512 21 284 0.0 3.2 0.00 0.05 0.05 95 1011.7
20260509113014 21 296 1.6 3.2 0.00 0.05 0.05 95 1012.3
20260509111514 21 352 1.6 6.4 0.00 0.05 0.05 95 1012.5
20260509110012 21 246 1.6 6.4 0.00 0.05 0.05 95 1012.5
20260509104514 21 275 3.2 4.8 0.00 0.05 0.05 95 1012.5
20260509103012 21 298 0.0 3.2 0.00 0.05 0.05 95 1012.4
20260509101514 21 360 0.0 3.2 0.03 0.05 0.05 95 1012.0
20260509100017 21 360 0.0 3.2 0.03 0.05 0.05 94 1011.5
20260509094514 21 15 0.0 3.2 0.05 0.05 0.05 94 1011.2
20260509093013 21 350 0.0 3.2 0.05 0.05 0.05 94 1011.4
20260509091517 21 352 0.0 3.2 0.03 0.03 0.03 94 1011.2
20260509090020 21 351 0.0 3.2 0.03 0.03 0.03 94 1011.2
20260509084523 21 28 0.0 3.2 0.00 0.00 0.00 94 1011.4